STARLINK-32396, 61633

Orbit data source: Space-Track

STARLINK-32396, 61633 is a payload satellite owned by SpaceX/Seattle (US) in LEO that was launched on Wed, 23 Oct 2024 UTC via an FALCON 9 launch vehicle from the Air Force Eastern Test Range (AFETR). Payload-class satellites include a variety of spacecraft equipped with specific instruments for various scientific and technological missions. These include communications satellites like Starlink; space stations such as the ISS; scientific satellites like the Hubble; Earth observation satellites from companies like Planet Labs, Umbra, and HawkEye 360; GPS; miniature CubeSats for education and research; and military/defense satellites.

Loading next visibility...
Identifier
61633, 2024-191N
Orbit
LEO
Country
Flag of USUS
Related business
Manufacturer
SpaceX/Seattle
Mission
Operational Commercial Communications
Bus & Motor
STARLINK V2M, Unknown motor
Mass
730 kg wet, ~700 kg dry
Launch date (UTC)
2024-10-23 (11 months ago)
Launch vehicle
FALCON 9
Launch site
Air Force Eastern Test Range (AFETR)
Object type
Payload
Rocket body
Debris
Shape & HBR
Box + 2 Pan, 14.5 m
Radar Cross Section
36.964 m², Large (>1 m²)

Expand to show TLE details & history
Last TLE update: 13 hours ago

TLE from 13 hours ago
0 STARLINK-32396
1 61633U 24191N   25258.77348861  .00001950  00000-0  80383-4 0  9993
2 61633  43.0028  65.9418 0001341 307.2468  52.8262 15.27579995 50740
Epoch: 2025-09-15T18:33Z
TLE epoch observation values (Epoch: 2025-09-15T18:33:49.415Z)
Latitude
0.00001°
Longitude
152.51259°
Altitude
482.269 km
Speed
7.626 km/s
True Right ascension
04h 23m 46s
True Declination
0° 00' 00"
Sunlit
Object was in daylight at epoch
Visualization orbit readout
Latitude
Unknown
Longitude
Unknown
Altitude
Unknown
Speed
Unknown
Apparent Right ascension
Unknown
Apparent Declination
Unknown
Sunlit
N/A
Visualization observer readout
Local Sidereal Time
00:17:15
Azimuth
Unknown
Elevation
Unknown
Doppler factor
Unknown
Orbital elements
Apogee altitude
485.914 km
Perigee altitude
484.073 km
Semi-major axis
6,863.131 km
Eccentricity
0.00013
Inclination
43.0028°
RAAN
65.9418°
Arg. of periapsis
307.2468°
True anomaly
52.83845°
Mean anomaly
52.8262°
Eccentric anomaly
52.83232°
Mean motion
3.81733 °/min
Orbital period
94.31 mins
BSTAR
0.000080383
Loading maneuver chart data...
Computing Atmospheric mass density...
Loading historical data...
Loading historical data...
Loading historical data...
Loading historical data...
Loading historical data...
Loading historical data...
Loading historical data...

Documentation

Showing up to 5 results
|